Rechercher aéroport 
image banner adimage banner ad
image banner ad

DAUO - El Oued / Guemar

Situé à El Oued, Algeria

ICAO - DAUO, IATA - ELU

Données fournies par Airmate  

Information générale

Coordonnées: N33°30'47" E6°46'57"
Élévation : 203 feet MSL.
 
Voir autres Aéroports à El Oued Province

Données opérationnelles

Accessible au public
Heure actuelle UTC:
Heure actuelle locale:
Météo
METAR: DAUO 211800Z 08005KT CAVOK 24/04 Q1018
TAF: TAF DAUO 222000Z 2221/2306 08006KT 8000 NSC
Voir NOTAMs / SUP AIP / TFR affectant cet aéroport [VIEW]
Fréquences de communication: [VIEW]

Pistes:

Identifiant RWYQFULongueur (ft)Largeur (ft)SurfaceLDA (ft)
13130°9843148
31310°9843148
0220°656298ASP
20200°656298

Coordonnées de l'aéroport

Adresse: El Oued Algeria

Vue satellite de DAUO